{"data":{"norad_id":57463,"intl_designator":"2023-107G","name":"STARLINK-30091","alt_names":[],"object_type":"PAYLOAD","status":"ACTIVE","operator":null,"country":"US","launch_date":"2023-07-28","launch_site_code":"AFETR","launch_vehicle":null,"mission":null,"orbit_class":"UNKNOWN","rcs_meters":null,"size_class":null,"mass_kg":null,"dimensions":null,"purposes":["comms"],"wikipedia_slug":null,"has_3d_model":false,"image_url":null,"decayed_at":null,"tle_current":{"epoch":"2026-06-20T05:19:38.333280Z","epoch_age_seconds":8100468,"freshness":"OLD","line1":"1 57463U 23107G   26171.22197145  .12654868  87976-5  40127-2 0  9994","line2":"2 57463  42.9869 104.2391 0014028 183.5909 176.4880 16.25092031160948","mean_motion":16.25092031,"eccentricity":0.0014028,"inclination_deg":42.9869,"raan_deg":104.2391,"arg_perigee_deg":183.5909,"mean_anomaly_deg":176.488,"bstar":0.0040127,"rev_number":16094,"period_min":88.610366215007,"perigee_km":196.52672576421,"apogee_km":214.9985145385,"semimajor_km":6583.8996201514,"source":"CELESTRAK","updated_at":"2026-06-21T09:00:47.200617Z"}}}